Location: Bowman Observatory
(41.0326°N, 73.6210°W)
Time: 17:15:24
(UTC-05:00)

Cosmos 2297 - Visible Passes

Search period start: 10 December 2016 00:00
Search period end: 20 December 2016 00:00
Orbit: 838 x 857 km, 71.0° (Epoch: 09 December)

Date Brightness Start Highest point End Pass type
(mag) Time Alt. Az. Time Alt. Az. Time Alt. Az.
10 Dec 5.2 18:22:26 10° WSW 18:27:29 33° WNW 18:32:34 10° N visible
11 Dec 5.2 18:09:03 10° WSW 18:14:08 34° WNW 18:19:15 10° N visible
12 Dec 5.1 17:55:41 10° WSW 18:00:47 34° WNW 18:05:55 10° N visible
13 Dec 5.1 17:42:18 10° WSW 17:47:26 35° WNW 17:52:35 10° N visible
14 Dec 5.1 17:28:57 10° SW 17:34:05 36° WNW 17:39:15 10° N visible
15 Dec 5.1 17:15:34 10° SW 17:20:44 36° WNW 17:25:56 10° N visible
16 Dec 5.0 17:02:11 10° SW 17:07:23 37° WNW 17:12:36 10° N visible
17 Dec 5.0 16:48:49 10° SW 16:54:02 38° WNW 16:59:16 10° N visible
